BV5AB-33 Weather Reports


Display with metric or nautical units.
time (UTC)temp
F
wind
direction
speed
MPH
gust
MPH
rain 1hr
in
rain 24hr
in
rain mn
in
humidity
%
barometer
mb
20260505075455 75 0 0.0 0.0 0.31 1.90 0.44 78 982.5
20260505074955 75 0 0.0 0.0 0.26 1.85 0.39 78 982.8
20260505074455 75 0 0.0 0.0 0.21 1.81 0.34 77 982.9
20260505073955 75 0 0.0 0.0 0.15 1.75 0.28 77 983.1
20260505072955 76 0 0.0 0.0 0.06 1.65 0.19 76 983.2
20260505072455 76 263 0.0 1.0 0.04 1.63 0.17 76 983.0
20260505071955 76 263 0.0 1.0 0.04 1.63 0.17 76 982.9
20260505071455 76 0 0.0 0.0 0.02 1.62 0.15 76 983.0
20260505070955 76 0 0.0 0.0 0.01 1.61 0.14 76 982.9
20260505070455 76 0 0.0 0.0 0.01 1.61 0.14 76 982.9
20260505065955 76 0 0.0 0.0 0.00 1.59 0.13 75 982.8
20260505065455 76 0 0.0 0.0 0.00 1.59 0.13 75 982.9
20260505064955 77 0 0.0 0.0 0.00 1.59 0.13 75 983.0
20260505063955 77 0 0.0 0.0 0.00 1.59 0.13 74 983.2
20260505063455 77 0 0.0 0.0 0.01 1.59 0.13 73 983.1
20260505062954 77 0 0.0 0.0 0.01 1.59 0.13 73 983.1
20260505062455 78 0 0.0 0.0 0.01 1.59 0.13 72 983.1
20260505061955 78 0 0.0 0.0 0.04 1.59 0.13 72 983.2
20260505061455 78 0 0.0 0.0 0.04 1.59 0.13 71 983.2
20260505060955 78 0 0.0 0.0 0.05 1.59 0.13 72 983.3
20260505060455 78 0 0.0 0.0 0.05 1.59 0.13 73 983.2
20260505055956 78 0 0.0 0.0 0.05 1.59 0.13 74 983.4
20260505054455 77 0 0.0 0.0 0.05 1.59 0.13 75 983.4
20260505053955 77 0 0.0 0.0 0.05 1.59 0.13 76 983.8
20260505053455 77 0 0.0 0.0 0.04 1.58 0.12 76 983.6
20260505052455 77 0 0.0 0.0 0.02 1.57 0.12 75 983.8
20260505051955 77 0 0.0 0.0 0.01 1.56 0.09 75 984.0
20260505051456 77 0 0.0 0.0 0.00 1.55 0.08 75 983.8
20260505050954 77 0 0.0 0.0 0.00 1.55 0.08 75 984.0
20260505041455 78 0 0.0 0.0 0.00 1.55 0.08 74 984.4
20260505040455 78 0 0.0 0.0 0.00 1.55 0.08 74 984.4
20260505035956 78 0 0.0 0.0 0.00 1.55 0.08 74 984.7
20260505035455 78 0 0.0 0.0 0.00 1.55 0.08 75 984.5
20260505034956 77 0 0.0 0.0 0.00 1.55 0.08 75 984.5
20260505034455 77 0 0.0 0.0 0.00 1.55 0.08 75 984.6
20260505033955 77 0 0.0 0.0 0.00 1.55 0.08 74 984.6
20260505033455 77 0 0.0 0.0 0.00 1.55 0.08 74 984.5
20260505032955 77 0 0.0 0.0 0.00 1.55 0.08 74 984.5
20260505032455 77 0 0.0 0.0 0.00 1.55 0.08 75 984.6
20260505031956 77 0 0.0 0.0 0.00 1.55 0.08 74 984.5
20260505031455 77 0 0.0 0.0 0.01 1.55 0.08 75 984.6
20260505030955 77 0 0.0 0.0 0.01 1.55 0.08 75 984.7
20260505025955 77 0 0.0 0.0 0.04 1.55 0.08 75 984.7
20260505025455 76 0 0.0 0.0 0.04 1.55 0.08 76 985.1
20260505024956 76 0 0.0 0.0 0.05 1.55 0.08 76 985.2
20260505024455 76 0 0.0 0.0 0.06 1.55 0.08 76 984.8
20260505023955 76 0 0.0 0.0 0.06 1.55 0.08 76 985.1
20260505022955 76 0 0.0 0.0 0.06 1.55 0.08 75 985.0
20260505022456 76 0 0.0 0.0 0.06 1.55 0.08 76 984.7
20260505021956 76 0 0.0 0.0 0.05 1.54 0.07 78 984.9
20260505021456 76 0 0.0 0.0 0.05 1.54 0.07 78 984.7
20260505020955 76 0 0.0 0.0 0.05 1.54 0.07 78 984.7
20260505015956 75 0 0.0 0.0 0.02 1.51 0.05 78 984.7
20260505014456 76 0 0.0 0.0 0.00 1.49 0.02 76 984.8
20260505013955 76 0 0.0 0.0 0.00 1.49 0.02 77 985.0
20260505013456 75 0 0.0 0.0 0.00 1.49 0.02 77 984.8
20260505012956 75 0 0.0 0.0 0.00 1.49 0.02 76 984.9
20260505012455 76 0 0.0 0.0 0.00 1.49 0.02 76 984.8
20260505011956 76 0 0.0 0.0 0.00 1.49 0.02 76 984.8
20260505011455 76 0 0.0 0.0 0.00 1.49 0.02 76 985.0
20260505010956 76 0 0.0 0.0 0.00 1.49 0.02 75 984.8
20260505010455 76 0 0.0 0.0 0.00 1.49 0.02 75 984.8
20260505005455 76 0 0.0 0.0 0.00 1.49 0.02 75 984.9
20260505004956 76 0 0.0 0.0 0.00 1.49 0.02 75 984.6
20260505003955 76 0 0.0 0.0 0.01 1.49 0.02 75 984.5
20260505003456 76 0 0.0 0.0 0.01 1.49 0.02 75 984.7
20260505002956 76 0 0.0 0.0 0.01 1.49 0.02 75 984.6
20260505002455 76 0 0.0 0.0 0.01 1.49 0.02 75 984.4
20260505001956 76 0 0.0 0.0 0.01 1.49 0.02 75 984.5
20260505001456 75 0 0.0 0.0 0.01 1.49 0.02 76 984.3
20260505000956 75 0 0.0 0.0 0.01 1.49 0.02 76 984.6
20260505000456 75 0 0.0 0.0 0.01 1.49 0.02 77 984.6
20260504235456 75 0 0.0 0.0 0.01 1.49 0.02 76 984.3
20260504234956 75 0 0.0 0.0 0.01 1.49 0.02 77 984.3
20260504234455 75 0 0.0 0.0 0.00 1.48 0.01 77 984.3
20260504233955 74 0 0.0 0.0 0.00 1.48 0.01 77 984.4
20260504233456 74 0 0.0 0.0 0.00 1.48 0.01 77 984.4
20260504232955 74 0 0.0 0.0 0.00 1.48 0.01 77 984.3
20260504232456 75 0 0.0 0.0 0.00 1.48 0.01 76 984.1
20260504231956 75 0 0.0 0.0 0.00 1.48 0.01 76 984.3
20260504231456 75 0 0.0 0.0 0.00 1.48 0.01 76 984.2
20260504230956 75 0 0.0 0.0 0.00 1.48 0.01 76 984.1
20260504230455 75 0 0.0 0.0 0.00 1.48 0.01 76 984.1
20260504225956 75 0 0.0 0.0 0.00 1.48 0.01 75 984.0
20260504225456 75 0 0.0 0.0 0.00 1.48 0.01 75 983.9
20260504224956 75 0 0.0 0.0 0.00 1.48 0.01 75 983.9
20260504224456 75 0 0.0 0.0 0.00 1.48 0.01 75 983.9
20260504223955 75 0 0.0 0.0 0.00 1.48 0.01 76 983.9
20260504223456 75 0 0.0 0.0 0.00 1.48 0.01 76 984.2
20260504222956 75 0 0.0 0.0 0.00 1.48 0.01 77 983.9
20260504221956 75 0 0.0 0.0 0.00 1.48 0.01 77 983.9
20260504221456 75 0 0.0 0.0 0.00 1.48 0.01 77 983.8
20260504220956 75 0 0.0 0.0 0.00 1.48 0.01 77 983.9
20260504215956 75 0 0.0 0.0 0.00 1.48 0.01 77 983.7
20260504215456 75 0 0.0 0.0 0.00 1.48 0.01 77 983.5
20260504214956 75 0 0.0 0.0 0.00 1.48 0.01 77 983.6
20260504213956 75 0 0.0 0.0 0.00 1.48 0.01 77 983.4
20260504212956 75 0 0.0 0.0 0.00 1.48 0.01 77 983.4
20260504212456 75 0 0.0 0.0 0.00 1.48 0.01 78 983.6
20260504210956 75 0 0.0 0.0 0.00 1.48 0.01 78 983.5
20260504210456 75 0 0.0 0.0 0.00 1.48 0.01 78 983.4
20260504205956 75 0 0.0 0.0 0.00 1.48 0.01 77 983.3
20260504205456 75 0 0.0 0.0 0.00 1.48 0.01 77 983.4
20260504204956 75 0 0.0 0.0 0.00 1.48 0.01 78 983.2
20260504204456 75 0 0.0 0.0 0.00 1.48 0.01 78 983.2
20260504203955 75 0 0.0 0.0 0.00 1.48 0.01 78 983.4
20260504203456 75 0 0.0 0.0 0.00 1.48 0.01 78 983.3
20260504202456 75 0 0.0 0.0 0.00 1.48 0.01 78 983.0
20260504201456 75 0 0.0 0.0 0.00 1.48 0.01 78 982.9
20260504200955 75 0 0.0 0.0 0.00 1.48 0.01 78 983.0
20260504200456 75 0 0.0 0.0 0.00 1.48 0.01 78 983.0
20260504195956 75 0 0.0 0.0 0.00 1.48 0.01 78 983.1
20260504195456 75 0 0.0 0.0 0.00 1.48 0.01 78 983.0
20260504194956 75 0 0.0 0.0 0.00 1.48 0.01 78 983.0
20260504194456 75 0 0.0 0.0 0.00 1.48 0.01 78 983.0
20260504193956 75 0 0.0 0.0 0.00 1.48 0.01 78 983.2
20260504193456 75 0 0.0 0.0 0.00 1.48 0.01 77 983.2
20260504192956 75 0 0.0 0.0 0.00 1.48 0.01 77 983.1
20260504192456 76 0 0.0 0.0 0.00 1.48 0.01 76 983.1
20260504191956 76 0 0.0 0.0 0.00 1.48 0.01 76 983.1
20260504190456 75 0 0.0 0.0 0.00 1.48 0.01 77 982.9
20260504185956 75 0 0.0 0.0 0.00 1.48 0.01 77 983.0
20260504185456 75 0 0.0 0.0 0.00 1.48 0.01 77 982.8
20260504184456 75 0 0.0 0.0 0.00 1.48 0.01 77 982.8
20260504183956 75 0 0.0 0.0 0.00 1.48 0.01 77 982.9
20260504183456 75 0 0.0 0.0 0.00 1.48 0.01 77 982.5
20260504182957 75 0 0.0 0.0 0.00 1.48 0.01 77 982.7
20260504182456 75 0 0.0 0.0 0.00 1.48 0.01 77 982.9
20260504181956 75 0 0.0 0.0 0.00 1.48 0.01 76 982.9
20260504181456 76 0 0.0 0.0 0.00 1.48 0.01 76 983.0
20260504180456 76 0 0.0 0.0 0.00 1.48 0.01 76 983.4
20260504175956 75 0 0.0 0.0 0.00 1.48 0.01 77 983.1
20260504175457 75 0 0.0 0.0 0.01 1.48 0.01 77 983.0
20260504174956 75 0 0.0 0.0 0.01 1.48 0.01 76 983.4
20260504174456 75 0 0.0 0.0 0.01 1.48 0.01 76 983.3
20260504173956 75 0 0.0 0.0 0.01 1.48 0.01 76 983.2
20260504173456 75 0 0.0 0.0 0.01 1.48 0.01 76 983.4
20260504172956 75 0 0.0 0.0 0.01 1.48 0.01 76 983.4
20260504172456 75 0 0.0 0.0 0.01 1.48 0.01 76 983.5
20260504171956 75 0 0.0 0.0 0.01 1.48 0.01 76 983.5
20260504171456 75 0 0.0 0.0 0.01 1.48 0.01 76 983.6
20260504170956 75 0 0.0 0.0 0.01 1.48 0.01 76 983.7
20260504170456 75 0 0.0 0.0 0.01 1.48 0.01 76 983.8
20260504150957 77 0 0.0 0.0 0.00 1.46 0.28 73 984.4
20260504140456 77 0 0.0 0.0 0.00 1.46 0.28 73 984.3
20260504110456 77 0 0.0 0.0 0.06 1.42 0.24 70 984.5
20260504081957 83 237 0.0 2.0 0.00 3.40 0.00 53 982.7
20260504081457 83 0 0.0 0.0 0.00 3.40 0.00 53 982.7
20260504080957 83 135 0.0 1.0 0.00 3.40 0.00 53 982.6
20260504080458 83 135 0.0 1.0 0.00 3.40 0.00 53 982.6